Location: Geroldsau
(48.7259°N, 8.2466°E)
Time: 18:57:03
(UTC+00:00)

FALCON 9 DEB - Visible Passes

Search period start: 21 October 2021 00:00
Search period end: 31 October 2021 00:00
Orbit: 349 x 361 km, 53.0° (Epoch: 21 October)

Date Brightness Start Highest point End Pass type
(mag) Time Alt. Az. Time Alt. Az. Time Alt. Az.
25 Oct 4.7 18:06:48 10° SSW 18:08:08 20° S 18:08:08 20° S visible
26 Oct 5.1 17:00:19 10° SSE 17:01:26 12° SE 17:02:34 10° ESE visible
26 Oct 5.0 18:33:15 10° SW 18:34:28 22° SW 18:34:28 22° SW visible
27 Oct 3.8 17:25:22 10° SSW 17:28:00 30° SE 17:29:00 24° ESE visible
27 Oct 6.1 19:00:14 10° W 19:00:38 13° W 19:00:38 13° W visible
28 Oct 2.5 17:51:47 10° WSW 17:54:44 78° SSE 17:55:01 68° E visible
29 Oct 3.7 16:43:43 10° SSW 16:46:24 33° SE 16:49:07 10° ENE visible
29 Oct 4.0 18:18:40 10° W 18:20:53 40° WNW 18:20:53 40° WNW visible
30 Oct 2.6 17:10:05 10° WSW 17:13:01 85° SSE 17:15:02 19° ENE visible
30 Oct 5.7 18:45:42 10° WNW 18:46:38 17° WNW 18:46:38 17° WNW visible
